AD7L Weather Reports


Display with metric or nautical units.
time (UTC)temp
F
wind
direction
speed
MPH
gust
MPH
rain 1hr
in
rain 24hr
in
rain mn
in
humidity
%
barometer
mb
20260505064704 55 195 1.0 3.0 0.00 0.00 0.00 88 1014.1
20260505063704 55 200 0.0 3.0 0.00 0.00 0.00 88 1013.9
20260505061703 56 201 0.0 1.0 0.00 0.00 0.00 87 1013.9
20260505060704 56 201 0.0 3.0 0.00 0.00 0.00 87 1013.8
20260505055704 57 183 1.0 5.0 0.00 0.00 0.00 86 1013.8
20260505054704 57 200 0.0 2.0 0.00 0.00 0.00 87 1013.7
20260505053704 58 200 0.0 1.0 0.00 0.00 0.00 87 1013.7
20260505052704 58 200 0.0 0.0 0.00 0.00 0.00 85 1013.7
20260505051704 58 200 0.0 0.0 0.00 0.00 0.00 84 1013.7
20260505050704 58 200 0.0 0.0 0.00 0.00 0.00 83 1013.6
20260505040704 60 200 0.0 1.0 0.00 0.00 0.00 80 1013.3
20260505035704 60 200 0.0 1.0 0.00 0.00 0.00 80 1013.0
20260505034704 61 200 0.0 2.0 0.00 0.00 0.00 80 1012.9
20260505033703 61 200 0.0 3.0 0.00 0.00 0.00 80 1012.7
20260505032704 62 204 1.0 3.0 0.00 0.00 0.00 80 1012.8
20260505031704 63 217 1.0 3.0 0.00 0.00 0.00 79 1012.6
20260505030703 64 196 0.0 5.0 0.00 0.00 0.00 79 1012.6
20260505024704 64 185 2.0 6.0 0.00 0.00 0.00 77 1012.4
20260505023703 65 176 2.0 6.0 0.00 0.00 0.00 76 1012.4
20260505022704 66 224 1.0 3.0 0.00 0.00 0.00 76 1012.3
20260505020704 67 202 1.0 5.0 0.00 0.00 0.00 77 1012.3
20260505014704 68 195 0.0 5.0 0.00 0.00 0.00 75 1012.4
20260505013703 68 217 0.0 3.0 0.00 0.00 0.00 74 1012.4
20260505012704 68 201 2.0 8.0 0.00 0.00 0.00 75 1012.4
20260505010704 69 221 1.0 7.0 0.00 0.00 0.00 72 1012.7
20260505005704 70 217 1.0 7.0 0.00 0.00 0.00 74 1012.6
20260505004703 70 220 2.0 7.0 0.00 0.00 0.00 76 1012.7
20260505003704 70 235 1.0 6.0 0.00 0.00 0.00 73 1012.8
20260505002704 70 220 1.0 5.0 0.00 0.00 0.00 74 1012.7
20260505001703 71 207 1.0 5.0 0.00 0.00 0.00 75 1012.8
20260505000704 71 234 1.0 8.0 0.00 0.00 0.00 75 1012.7
20260504235704 70 212 1.0 9.0 0.00 0.00 0.00 75 1012.8
20260504234703 71 208 2.0 8.0 0.00 0.00 0.00 74 1012.8
20260504233704 71 214 1.0 5.0 0.00 0.00 0.00 75 1012.9
20260504232704 71 207 1.0 9.0 0.00 0.00 0.00 75 1013.2
20260504231704 71 205 1.0 5.0 0.00 0.00 0.00 73 1013.1
20260504230703 71 214 1.0 8.0 0.00 0.00 0.00 74 1013.2
20260504225704 71 191 2.0 8.0 0.00 0.00 0.00 74 1013.3
20260504224703 71 213 2.0 8.0 0.00 0.00 0.00 74 1013.3
20260504223704 70 221 1.0 7.0 0.00 0.00 0.00 74 1013.4
20260504222704 70 188 2.0 7.0 0.00 0.00 0.00 76 1013.6
20260504221704 70 232 1.0 5.0 0.00 0.00 0.00 74 1013.7
20260504212703 70 275 1.0 6.0 0.00 0.00 0.00 71 1013.9
20260504211704 70 189 2.0 6.0 0.00 0.00 0.00 71 1013.9
20260504210704 70 224 1.0 5.0 0.00 0.00 0.00 57 1014.1
20260504205704 70 181 1.0 5.0 0.00 0.00 0.00 74 1014.3
20260504204704 68 209 0.0 5.0 0.00 0.00 0.00 77 1014.4
20260504203703 68 206 1.0 5.0 0.00 0.00 0.00 75 1014.4
20260504202704 67 203 1.0 7.0 0.00 0.00 0.00 73 1014.5
20260504200704 66 203 0.0 5.0 0.00 0.00 0.00 78 1014.6
20260504195703 66 248 0.0 6.0 0.00 0.00 0.00 73 1014.6
20260504194704 64 209 1.0 3.0 0.00 0.00 0.00 80 1014.7
20260504191704 61 243 1.0 3.0 0.00 0.00 0.00 82 1014.7
20260504190703 60 207 0.0 3.0 0.00 0.00 0.00 87 1014.8
20260504185704 58 231 0.0 3.0 0.00 0.00 0.00 85 1014.7
20260504184704 58 217 1.0 3.0 0.00 0.00 0.00 88 1014.8
20260504183704 57 201 0.0 6.0 0.00 0.00 0.00 90 1014.7
20260504182703 56 219 0.0 3.0 0.00 0.00 0.00 89 1014.6
20260504181704 56 224 1.0 3.0 0.00 0.00 0.00 89 1014.7
20260504180704 55 187 1.0 3.0 0.00 0.00 0.00 91 1014.7
20260504175704 55 226 0.0 3.0 0.00 0.00 0.00 91 1014.7
20260504174704 54 214 0.0 3.0 0.00 0.00 0.00 92 1014.5
20260504173704 54 199 0.0 5.0 0.00 0.00 0.00 92 1014.5
20260504172704 54 182 0.0 5.0 0.00 0.00 0.00 94 1014.6
20260504171704 54 191 1.0 3.0 0.00 0.00 0.00 95 1014.5
20260504170703 53 189 1.0 3.0 0.00 0.00 0.00 93 1014.5
20260504150703 51 230 0.0 3.0 0.00 0.00 0.00 97 1013.9
20260504140703 50 222 1.0 9.0 0.00 0.00 0.00 98 1013.3
20260504130704 50 194 2.0 10.0 0.00 0.00 0.00 96 1012.5
20260504110704 57 188 3.0 12.0 0.00 0.00 0.00 81 1011.5
20260504080703 70 346 1.0 6.0 0.00 0.00 0.00 51 1011.0